Weather History for Meadow Lake, CO

Change the Weather History Date:

Wednesday, January 16, 2013

  Actual Average (KCOS) Record (KCOS)
Temperature  
Mean Temperature 33 °F 31 °F  
Max Temperature 47 °F 43 °F 72 °F (1974)
Min Temperature 19 °F 18 °F -8 °F (1917)
Degree Days  
Heating Degree Days 32 34  
Month to date heating degree days 554  
Since 1 July heating degree days 3126  
Cooling Degree Days 0 0  
Month to date cooling degree days 0  
Year to date cooling degree days 0  
Moisture  
Dew Point 15 °F    
Average Humidity 52    
Maximum Humidity 79    
Minimum Humidity 28    
Precipitation  
Precipitation 0.00 in 0.01 in 0.35 in (2001)
Month to date precipitation 0.15  
Year to date precipitation 0.15  
Snow  
Snow 0.00 in 0.10 in 6.70 in (2001)
Month to date snowfall 2.8  
Since 1 July snowfall 16.3  
Snow Depth -    
Sea Level Pressure  
Sea Level Pressure 30.22 in    
Wind  
Wind Speed 8 mph (NNW)    
Max Wind Speed 14 mph    
Max Gust Speed 21 mph    
Visibility 10 miles    
Events      
T = Trace of Precipitation, MM = Missing Value Source: NWS Daily Summary

Daily Weather History Graph

Daily Weather History Graph

Search for Another Location

Airport:

Trip Planner

Search our weather history database for the weather conditions in past years. The results will help you decide how hot, cold, wet, or windy it might be!

Date:

Astronomy

Jan. 16, 2013 Rise Set
Actual Time 7:14 AM MST 5:01 PM MST
Civil Twilight 6:45 AM MST 5:30 PM MST
Nautical Twilight 6:13 AM MST 6:03 PM MST
Astronomical Twilight 5:41 AM MST 6:35 PM MST
Moon 9:56 AM MST (1/16) 10:52 PM MST (1/16)
Length of Visible Light 10h 45m
Length of Day
9h 46m
Waxing Crescent, 29% of the Moon is Illuminated
Jan 16
Waxing Crescent
Jan 18
First Quarter
Jan 26
Full
Feb 3
Last Quarter
Feb 10
New

Hourly Weather History & Observations

Time (MST) Temp. Windchill Dew Point Humidity Pressure Visibility Wind Dir Wind Speed Gust Speed Precip Events Conditions
12:14 AM 24.4 °F 16.5 °F 14.7 °F 67% 30.09 in 10.0 mi West 6.9 mph - N/A   Overcast
12:34 AM 24.6 °F 16.7 °F 14.0 °F 64% 30.10 in 10.0 mi WNW 6.9 mph - N/A   Overcast
12:54 AM 24.6 °F 15.1 °F 14.0 °F 64% 30.09 in 10.0 mi WNW 9.2 mph - N/A   Overcast
1:14 AM 29.7 °F 21.3 °F 15.4 °F 55% 30.10 in 10.0 mi NW 9.2 mph - N/A   Overcast
1:34 AM 31.1 °F 24.5 °F 15.4 °F 52% 30.11 in 10.0 mi NW 6.9 mph - N/A   Overcast
1:54 AM 32.2 °F 22.3 °F 20.1 °F 61% 30.13 in 10.0 mi North 13.8 mph 20.7 mph N/A   Overcast
2:14 AM 31.8 °F 24.6 °F 18.3 °F 57% 30.13 in 10.0 mi NNW 8.1 mph 16.1 mph N/A   Overcast
2:34 AM 30.6 °F 22.4 °F 17.6 °F 59% 30.13 in 10.0 mi NW 9.2 mph - N/A   Mostly Cloudy
2:54 AM 29.3 °F 21.5 °F 18.1 °F 63% 30.13 in 10.0 mi NW 8.1 mph - N/A   Scattered Clouds
3:14 AM 26.6 °F 19.1 °F 17.2 °F 68% 30.13 in 10.0 mi WNW 6.9 mph - N/A   Clear
3:34 AM 23.5 °F 15.4 °F 16.9 °F 76% 30.13 in 10.0 mi NW 6.9 mph - N/A   Clear
3:54 AM 23.5 °F 16.4 °F 17.2 °F 77% 30.13 in 10.0 mi NW 5.8 mph - N/A   Clear
4:14 AM 22.1 °F 15.9 °F 16.5 °F 79% 30.13 in 10.0 mi NW 4.6 mph - N/A   Clear
4:34 AM 22.1 °F 14.7 °F 16.5 °F 79% 30.13 in 10.0 mi WNW 5.8 mph - N/A   Clear
4:54 AM 22.5 °F 12.4 °F 16.7 °F 79% 30.12 in 10.0 mi WNW 9.2 mph - N/A   Clear
5:14 AM 25.0 °F 14.8 °F 16.3 °F 70% 30.13 in 10.0 mi WNW 10.4 mph - N/A   Clear
5:34 AM 23.9 °F 14.2 °F 15.4 °F 70% 30.12 in 10.0 mi WNW 9.2 mph - N/A   Clear
5:54 AM 23.2 °F 13.3 °F 15.6 °F 73% 30.13 in 10.0 mi WNW 9.2 mph - N/A   Clear
6:14 AM 22.5 °F 14.1 °F 15.6 °F 75% 30.13 in 10.0 mi NNW 6.9 mph - N/A   Clear
6:34 AM 22.3 °F 13.0 °F 15.8 °F 76% 30.14 in 10.0 mi NW 8.1 mph - N/A   Clear
6:54 AM 20.1 °F 13.6 °F 14.4 °F 78% 30.14 in 10.0 mi NW 4.6 mph - N/A   Clear
7:14 AM 19.9 °F 11.1 °F 14.4 °F 79% 30.16 in 10.0 mi NW 6.9 mph - N/A   Clear
7:34 AM 23.2 °F 14.1 °F 15.6 °F 73% 30.16 in 10.0 mi NW 8.1 mph - N/A   Clear
7:54 AM 26.8 °F 20.2 °F 16.7 °F 66% 30.17 in 10.0 mi NW 5.8 mph - N/A   Clear
8:14 AM 32.2 °F 24.4 °F 16.9 °F 53% 30.19 in 10.0 mi NW 9.2 mph - N/A   Clear
8:34 AM 34.9 °F 27.1 °F 15.6 °F 45% 30.20 in 10.0 mi WNW 10.4 mph - N/A   Clear
8:54 AM 37.0 °F 29.8 °F 14.9 °F 40% 30.20 in 10.0 mi WNW 10.4 mph - N/A   Clear
9:14 AM 38.7 °F 32.4 °F 14.5 °F 37% 30.21 in 10.0 mi NW 9.2 mph - N/A   Clear
9:34 AM 39.9 °F 33.4 °F 15.1 °F 36% 30.22 in 10.0 mi NW 10.4 mph 17.3 mph N/A   Clear
9:54 AM 41.0 °F 33.9 °F 15.1 °F 35% 30.22 in 10.0 mi NNW 12.7 mph - N/A   Clear
10:14 AM 42.3 °F 35.9 °F 15.1 °F 33% 30.22 in 10.0 mi North 11.5 mph 17.3 mph N/A   Clear
10:34 AM 42.3 °F 35.5 °F 14.9 °F 33% 30.23 in 10.0 mi NNW 12.7 mph 17.3 mph N/A   Clear
10:54 AM 43.3 °F 37.2 °F 15.4 °F 32% 30.22 in 10.0 mi NNW 11.5 mph 18.4 mph N/A   Clear
11:14 AM 44.1 °F 38.1 °F 15.3 °F 31% 30.21 in 10.0 mi NNW 11.5 mph 16.1 mph N/A   Clear
11:34 AM 43.9 °F 38.8 °F 15.3 °F 32% 30.21 in 10.0 mi North 9.2 mph 17.3 mph N/A   Clear
11:54 AM 45.0 °F 40.1 °F 15.1 °F 30% 30.21 in 10.0 mi North 9.2 mph - N/A   Clear
12:14 PM 45.7 °F 41.0 °F 15.1 °F 29% 30.20 in 10.0 mi North 9.2 mph 18.4 mph N/A   Clear
12:34 PM 45.9 °F 41.7 °F 15.1 °F 29% 30.20 in 10.0 mi NNE 8.1 mph 19.6 mph N/A   Clear
1:14 PM 46.4 °F 42.4 °F 15.1 °F 28% 30.20 in 10.0 mi NNW 8.1 mph - N/A   Clear
1:34 PM 46.6 °F - 15.1 °F 28% 30.20 in 10.0 mi North 9.2 mph - N/A   Clear
1:54 PM 46.8 °F - 15.3 °F 28% 30.20 in 10.0 mi North 9.2 mph - N/A   Clear
2:14 PM 46.9 °F - 15.1 °F 28% 30.20 in 10.0 mi NNE 5.8 mph 16.1 mph N/A   Clear
2:34 PM 47.1 °F - 14.9 °F 28% 30.21 in 10.0 mi NNE 9.2 mph - N/A   Clear
2:54 PM 46.9 °F - 14.9 °F 28% 30.21 in 10.0 mi North 8.1 mph - N/A   Clear
3:14 PM 46.6 °F - 14.9 °F 28% 30.21 in 10.0 mi NNE 9.2 mph - N/A   Clear
3:34 PM 45.7 °F 41.0 °F 14.9 °F 29% 30.22 in 10.0 mi North 9.2 mph - N/A   Clear
3:54 PM 45.5 °F 41.3 °F 14.9 °F 29% 30.23 in 10.0 mi NNE 8.1 mph - N/A   Clear
4:14 PM 43.3 °F 38.6 °F 14.7 °F 32% 30.24 in 10.0 mi NNE 8.1 mph - N/A   Clear
4:54 PM 38.1 °F 34.6 °F 14.4 °F 38% 30.26 in 10.0 mi NNE 4.6 mph - N/A   Clear
5:14 PM 34.3 °F 27.7 °F 14.0 °F 43% 30.26 in 10.0 mi North 8.1 mph - N/A   Clear
5:34 PM 32.2 °F 25.8 °F 14.0 °F 47% 30.27 in 10.0 mi North 6.9 mph - N/A   Clear
5:54 PM 32.4 °F 25.3 °F 14.5 °F 48% 30.28 in 10.0 mi North 8.1 mph - N/A   Clear
6:14 PM 32.0 °F 24.8 °F 14.7 °F 49% 30.29 in 10.0 mi North 8.1 mph - N/A   Clear
6:34 PM 31.3 °F 23.9 °F 14.7 °F 50% 30.30 in 10.0 mi North 8.1 mph - N/A   Clear
6:54 PM 30.6 °F 21.8 °F 15.3 °F 53% 30.30 in 10.0 mi NNE 10.4 mph - N/A   Clear
7:14 PM 31.8 °F 26.2 °F 15.4 °F 51% 30.31 in 10.0 mi North 5.8 mph - N/A   Clear
7:34 PM 31.1 °F 24.5 °F 16.2 °F 54% 30.32 in 10.0 mi North 6.9 mph - N/A   Clear
7:54 PM 29.5 °F 21.1 °F 16.5 °F 59% 30.33 in 10.0 mi North 9.2 mph - N/A   Clear
8:14 PM 30.7 °F 22.6 °F 17.1 °F 57% 30.33 in 10.0 mi North 9.2 mph - N/A   Clear
8:34 PM 29.7 °F 22.0 °F 17.1 °F 59% 30.33 in 10.0 mi North 8.1 mph - N/A   Clear
8:54 PM 29.3 °F 21.5 °F 17.1 °F 60% 30.33 in 10.0 mi North 8.1 mph - N/A   Clear
9:14 PM 28.6 °F 23.5 °F 17.2 °F 63% 30.34 in 10.0 mi NNW 4.6 mph - N/A   Clear
9:34 PM 30.4 °F 22.9 °F 17.2 °F 58% 30.35 in 10.0 mi North 8.1 mph - N/A   Clear
9:54 PM 27.5 °F 21.1 °F 16.3 °F 63% 30.35 in 10.0 mi North 5.8 mph - N/A   Clear
10:14 PM 27.0 °F 19.5 °F 16.5 °F 65% 30.35 in 10.0 mi North 6.9 mph - N/A   Clear
10:34 PM 27.5 °F 21.1 °F 15.1 °F 60% 30.35 in 10.0 mi NNW 5.8 mph - N/A   Clear
10:54 PM 24.8 °F 17.9 °F 13.5 °F 62% 30.36 in 10.0 mi NNW 5.8 mph - N/A   Clear
11:14 PM 23.9 °F 18.0 °F 13.1 °F 63% 30.37 in 10.0 mi North 4.6 mph - N/A   Clear
11:34 PM 25.7 °F 20.1 °F 12.4 °F 57% 30.38 in 10.0 mi North 4.6 mph - N/A   Clear
11:54 PM 21.7 °F - 10.8 °F 63% 30.38 in 10.0 mi Calm Calm - N/A   Clear